Location: Del Amo
(33.8464°N, 118.2104°W)
Time: 14:41:04
(UTC+00:00)

Vanguard 2 Rocket - All Passes

Search period start: 13 September 2024 00:00
Search period end: 23 September 2024 00:00
Orbit: 553 x 3300 km, 32.9° (Epoch: 13 September)

Date Brightness Start Highest point End Pass type
(mag) Time Alt. Az. Time Alt. Az. Time Alt. Az.
13 Sep - 06:36:15 10° SSE 06:40:47 15° SE 06:46:37 10° E visible
13 Sep - 08:43:50 10° SW 08:52:54 55° SSE 09:08:30 10° ENE visible
13 Sep - 10:56:00 10° WSW 11:08:33 85° S 11:28:18 10° E visible
13 Sep - 13:10:14 10° W 13:26:40 82° SSW 13:47:04 10° ESE visible
13 Sep - 15:26:18 10° WNW 15:44:39 55° SSW 16:02:24 10° SE daylight
13 Sep - 17:46:48 10° W 18:00:18 23° SW 18:12:02 10° S daylight
14 Sep - 07:41:58 10° SSW 07:49:24 38° SE 08:01:41 10° E visible
14 Sep - 09:52:54 10° WSW 10:03:30 78° SSE 10:21:36 10° E visible
14 Sep - 12:06:17 10° W 12:20:41 86° S 12:41:09 10° E visible
14 Sep - 14:21:18 10° W 14:38:53 66° SSW 14:58:16 10° SE daylight
14 Sep - 16:39:12 10° W 16:55:37 34° SW 17:10:33 10° SSE daylight
15 Sep - 06:40:56 10° S 06:46:30 23° SE 06:54:36 10° E visible
15 Sep - 08:50:14 10° SW 08:59:07 66° SSE 09:14:52 10° E visible
15 Sep - 11:02:45 10° W 11:15:04 87° S 11:34:42 10° E visible
15 Sep - 13:16:54 10° W 13:32:56 75° SSW 13:53:14 10° ESE daylight
15 Sep - 15:33:06 10° W 15:50:26 45° SW 16:07:44 10° SSE daylight
15 Sep - 17:56:16 10° WSW 18:05:49 16° SW 18:14:39 10° SSW daylight
16 Sep - 05:43:31 10° SE 05:43:58 10° SE 05:44:27 10° SE night (unlit)
16 Sep - 07:48:03 10° SW 07:55:25 49° SSE 08:08:14 10° E visible
16 Sep - 09:59:35 10° WSW 10:09:58 84° S 10:27:56 10° E visible
16 Sep - 12:12:58 10° W 12:27:05 82° SSW 12:47:25 10° ESE visible
16 Sep - 14:27:58 10° W 14:44:51 56° SSW 15:03:52 10° SE daylight
16 Sep - 16:46:55 10° W 17:01:10 25° SW 17:14:40 10° S daylight
17 Sep - 06:46:27 10° SSW 06:52:20 31° SE 07:01:40 10° E visible
17 Sep - 08:56:47 10° WSW 09:05:28 75° SSE 09:21:09 10° E visible
17 Sep - 11:09:28 10° W 11:21:33 86° S 11:41:00 10° E visible
17 Sep - 13:23:31 10° W 13:39:05 67° SSW 13:59:05 10° SE daylight
17 Sep - 15:40:10 10° W 15:56:06 36° SW 16:12:29 10° SSE daylight
18 Sep - 05:45:54 10° S 05:49:43 16° SE 05:54:42 10° E night (unlit)
18 Sep - 07:54:22 10° SW 08:01:36 61° SSE 08:14:36 10° E visible
18 Sep - 10:06:18 10° W 10:16:28 87° S 10:34:13 10° E visible
18 Sep - 12:19:37 10° W 12:33:23 75° SSW 12:53:27 10° ESE visible
18 Sep - 14:34:43 10° W 14:50:41 46° SSW 15:09:02 10° SSE daylight
18 Sep - 16:55:52 10° W 17:06:46 18° SW 17:17:27 10° SSW daylight
19 Sep - 06:52:23 10° SW 06:58:19 42° SSE 07:08:19 10° E visible
19 Sep - 09:03:26 10° WSW 09:11:55 82° S 09:27:25 10° E visible
19 Sep - 11:16:08 10° W 11:27:57 82° S 11:47:09 10° ESE visible
19 Sep - 13:30:11 10° W 13:45:06 57° SSW 14:04:32 10° SE daylight
19 Sep - 15:47:45 10° W 16:01:46 27° SW 16:16:28 10° S daylight
20 Sep - 05:51:01 10° SSW 05:55:33 24° SE 06:02:08 10° E night (unlit)
20 Sep - 08:00:53 10° WSW 08:07:56 72° SSE 08:20:52 10° E visible
20 Sep - 10:12:59 10° W 10:22:57 86° S 10:40:26 10° E visible
20 Sep - 12:26:15 10° W 12:39:34 66° SSW 12:59:11 10° SE visible
20 Sep - 14:41:46 10° W 14:56:29 36° SW 15:13:36 10° SSE daylight
20 Sep - 17:09:20 10° WSW 17:12:31 11° SW 17:15:41 10° SW daylight
21 Sep - 04:51:39 10° SSE 04:53:04 11° SE 04:54:39 10° ESE night (unlit)
21 Sep - 06:58:37 10° SW 07:04:29 54° SSE 07:14:44 10° E visible
21 Sep - 09:10:06 10° W 09:18:24 86° S 09:33:39 10° E visible
21 Sep - 11:22:46 10° W 11:34:16 75° SSW 11:53:06 10° ESE visible
21 Sep - 13:36:56 10° W 13:51:03 46° SSW 14:09:31 10° SE daylight
21 Sep - 15:56:25 10° W 16:07:29 19° SW 16:19:12 10° S daylight
22 Sep - 05:56:47 10° SSW 06:01:32 34° SE 06:08:57 10° E night (unlit)
22 Sep - 08:07:27 10° WSW 08:14:22 80° S 08:27:06 10° E visible
22 Sep - 10:19:37 10° W 10:29:22 82° S 10:46:32 10° ESE visible
22 Sep - 12:32:53 10° W 12:45:40 56° SSW 13:04:31 10° SE visible
22 Sep - 14:49:17 10° W 15:02:17 27° SW 15:17:24 10° S daylight
